Satellite: RS-30
Catalog number: 32953
Epoch time:      10301.50003976
Element set:     169
Inclination:      082.4995 deg
RA of node:       306.7858 deg
Eccentricity:    0.0018835
Arg of perigee:   167.2759 deg
Mean anomaly:     192.8804 deg
Mean motion:   12.43008848 rev/day
Decay rate:        1.0e-07 rev/day^2
Epoch rev:           11030
Checksum:              299

Satellite: TACSAT-3
Catalog number: 35001
Epoch time:      10301.80887240
Element set:     417
Inclination:      040.4539 deg
RA of node:       130.6598 deg
Eccentricity:    0.0023167
Arg of perigee:   287.1305 deg
Mean anomaly:     072.6973 deg
Mean motion:   15.43331857 rev/day
Decay rate:      8.011e-05 rev/day^2
Epoch rev:            8127
Checksum:              279

Satellite: PHARMSAT
Catalog number: 35002
Epoch time:      10300.88231926
Element set:     389
Inclination:      040.4684 deg
RA of node:       133.8541 deg
Eccentricity:    0.0025963
Arg of perigee:   282.9927 deg
Mean anomaly:     076.7988 deg
Mean motion:   15.43675952 rev/day
Decay rate:      7.498e-05 rev/day^2
Epoch rev:            8115
Checksum:              331

Satellite: HAWKSAT1
Catalog number: 35003
Epoch time:      10301.82163704
Element set:     424
Inclination:      040.4586 deg
RA of node:       118.2740 deg
Eccentricity:    0.0024359
Arg of perigee:   308.6466 deg
Mean anomaly:     051.2171 deg
Mean motion:   15.48477087 rev/day
Decay rate:     1.6719e-04 rev/day^2
Epoch rev:            8141
Checksum:              277

Satellite: CP6
Catalog number: 35004
Epoch time:      10301.78836223
Element set:     422
Inclination:      040.4608 deg
RA of node:       116.2216 deg
Eccentricity:    0.0023101
Arg of perigee:   314.3606 deg
Mean anomaly:     045.5304 deg
Mean motion:   15.49983853 rev/day
Decay rate:     2.1566e-04 rev/day^2
Epoch rev:            8142
Checksum:              259

Satellite: AEROCUB3
Catalog number: 35005
Epoch time:      10301.78343267
Element set:     500
Inclination:      040.4653 deg
RA of node:       102.9801 deg
Eccentricity:    0.0024051
Arg of perigee:   340.5960 deg
Mean anomaly:     019.3915 deg
Mean motion:   15.66044514 rev/day
Decay rate:    1.20483e-03 rev/day^2
Epoch rev:            8157
Checksum:              257

Satellite: CASTOR
Catalog number: 35694
Epoch time:      10230.44082147
Element set:     655
Inclination:      051.5930 deg
RA of node:       222.0149 deg
Eccentricity:    0.0004218
Arg of perigee:   308.0851 deg
Mean anomaly:     053.0105 deg
Mean motion:   16.48877011 rev/day
Decay rate:   7.179566e-02 rev/day^2
Epoch rev:            6110
Checksum:              273

Satellite: METEOR-M
Catalog number: 35865
Epoch time:      10301.62924063
Element set:     782
Inclination:      098.7424 deg
RA of node:       354.3608 deg
Eccentricity:    0.0002796
Arg of perigee:   357.6691 deg
Mean anomaly:     002.4440 deg
Mean motion:   14.21832380 rev/day
Decay rate:       1.76e-06 rev/day^2
Epoch rev:            5768
Checksum:              301

Satellite: RS-38
Catalog number: 35869
Epoch time:      10301.72681636
Element set:     796
Inclination:      098.7406 deg
RA of node:       354.4974 deg
Eccentricity:    0.0005107
Arg of perigee:   350.7588 deg
Mean anomaly:     009.3466 deg
Mean motion:   14.21991924 rev/day
Decay rate:       1.77e-06 rev/day^2
Epoch rev:            5770
Checksum:              341

/EX




More information about the Keps mailing list